Preview of NWS' New Version of Forecast
This preview is not operational and should not be used for support decisions.

Regional Weather Roundup (RWR)

Issued by National Weather Service (NWS)

                            
000
ASUS43 KBIS 251202
RWRND 

NORTH DAKOTA REGIONAL WEATHER ROUNDUP
NATIONAL WEATHER SERVICE BISMARCK ND
700 AM CDT SUN AUG 25 2019

NOTE: "FAIR" INDICATES FEW OR NO CLOUDS BELOW 12,000 FEET WITH NO
SIGNIFICANT WEATHER AND/OR OBSTRUCTIONS TO VISIBILITY.


NDZ001>003-009>011-017-251300-
NORTHWEST NORTH DAKOTA
  
CITY           SKY/WX    TMP DP  RH WIND       PRES   REMARKS
WILLISTON      MOCLDY    64  59  83 SW6       29.72R                  
6HR MIN TEMP:  57; 6HR MAX TEMP:  72;                                

MINOT          FAIR      63  61  93 CALM      29.69S                  
MINOT AFB      CLOUDY    64  63  97 CALM      29.68S                  
$$
 
NDZ018>021-031>035-040>046-251300-
SOUTHWEST NORTH DAKOTA
  
CITY           SKY/WX    TMP DP  RH WIND       PRES   REMARKS
BISMARCK       CLOUDY    65  64  97 E7        29.76S                  
6HR MIN TEMP:  64; 6HR MAX TEMP:  67; 6HR PCP:  0.11;                

DICKINSON      FAIR      61  59  93 S9        29.73R                  
GARRISON         N/A     64  63  96 S14       29.71R                  
6HR MIN TEMP:  63; 6HR MAX TEMP:  68;                                

HETTINGER ARPT FAIR      58  56  93 CALM      29.78F                  
$$
 
NDZ004>008-012>016-024-026-027-054-251300-
NORTHEAST NORTH DAKOTA
  
CITY           SKY/WX    TMP DP  RH WIND       PRES   REMARKS
GRAND FORKS    CLOUDY    63  55  75 S14       29.82F                  
DEVILS LAKE    CLOUDY    63  61  93 S12       29.78R                  
$$
 
NDZ022-023-025-028>030-036>039-047>053-251300-
SOUTHEAST NORTH DAKOTA
  
CITY           SKY/WX    TMP DP  RH WIND       PRES   REMARKS
FARGO          MOCLDY    63  56  78 S16G23    29.86F                  
6HR MIN TEMP:  63; 6HR MAX TEMP:  65;                                

JAMESTOWN      CLOUDY    64  62  93 S10       29.81S                  
$$